QPF
0.00 0.00 0.00 0.00 0.00 0.00 0.00 0.00 0.00 0.00 0.00 0.00 0.00 0.00 0.00 0.00 0.00 0.00 0.00 0.00 0.00 0.00 0.00 0.00 0.00 0.00 0.00 0.00 0.00 0.00 0.00 0.00 0.00 0.00 0.00 0.00 0.00 0.00 0.00 0.03 0.07 0.08 0.05 0.02
0.00 0.00 0.00 0.00 0.00 0.00 0.00 0.00 0.00 0.00 0.00 0.00 0.00 0.00 0.00 0.00 0.00 0.00 0.00 0.00 0.00 0.00 0.00 0.00 0.00 0.00 0.00 0.00 0.00 0.00 0.00 0.00 0.00 0.00 0.00 0.00 0.00 0.00 0.00 0.01 0.02 0.02 0.03 0.03
0.00 0.00 0.00 0.00 0.00 0.00 0.00 0.00 0.00 0.00 0.00 0.00 0.00 0.00 0.00 0.00 0.00 0.00 0.00 0.00 0.00 0.00 0.00 0.00 0.00 0.00 0.00 0.00 0.00 0.00 0.00 0.00 0.00 0.00 0.00 0.00 0.00 0.00 0.00 0.00 0.01 0.03 0.02 0.03
0.00 0.00 0.00 0.00 0.00 0.00 0.00 0.00 0.00 0.00 0.00 0.00 0.00 0.00 0.00 0.00 0.00 0.00 0.00 0.00 0.00 0.00 0.00 0.00 0.00 0.00 0.00 0.00 0.00 0.00 0.00 0.00 0.00 0.00 0.00 0.00 0.00 0.00 0.00 0.00 0.01 0.02 0.03 0.04
0.00 0.00 0.00 0.00 0.00 0.00 0.00 0.00 0.00 0.00 0.00 0.00 0.00 0.00 0.00 0.00 0.00 0.00 0.00 0.00 0.00 0.00 0.00 0.00 0.00 0.00 0.00 0.00 0.00 0.00 0.00 0.00 0.00 0.01 0.00 0.00 0.00 0.00 0.00 0.00 0.00 0.00 0.03 0.04
0.00 0.00 0.00 0.00 0.00 0.00 0.00 0.00 0.00 0.00 0.00 0.00 0.00 0.00 0.00 0.00 0.00 0.00 0.00 0.00 0.00 0.00 0.00 0.00 0.00 0.00 0.00 0.00 0.00 0.00 0.00 0.00 0.00 0.01 0.01 0.00 0.00 0.00 0.00 0.00 0.00 0.00 0.02 0.04
0.00 0.00 0.00 0.00 0.00 0.00 0.00 0.00 0.00 0.00 0.00 0.00 0.00 0.00 0.00 0.00 0.00 0.00 0.00 0.00 0.00 0.00 0.00 0.00 0.00 0.00 0.00 0.00 0.00 0.00 0.00 0.00 0.00 0.01 0.02 0.01 0.00 0.00 0.00 0.00 0.00 0.00 0.00 0.03
0.00 0.00 0.00 0.00 0.00 0.00 0.00 0.00 0.00 0.00 0.00 0.00 0.00 0.00 0.00 0.00 0.00 0.00 0.00 0.00 0.00 0.00 0.00 0.00 0.00 0.00 0.00 0.00 0.00 0.00 0.00 0.00 0.00 0.01 0.02 0.01 0.00 0.00 0.00 0.00 0.00 0.00 0.00 0.02
0.00 0.00 0.00 0.00 0.00 0.00 0.00 0.00 0.00 0.00 0.00 0.00 0.00 0.00 0.00 0.00 0.00 0.00 0.00 0.00 0.00 0.00 0.00 0.00 0.00 0.00 0.00 0.00 0.00 0.00 0.00 0.00 0.00 0.01 0.01 0.00 0.00 0.00 0.00 0.00 0.00 0.00 0.00 0.01
0.00 0.00 0.00 0.00 0.00 0.00 0.00 0.00 0.00 0.00 0.00 0.00 0.00 0.00 0.00 0.00 0.00 0.00 0.00 0.00 0.00 0.00 0.00 0.00 0.00 0.00 0.00 0.00 0.00 0.00 0.00 0.00 0.00 0.01 0.01 0.01 0.02 0.02 0.01 0.00 0.00 0.00 0.01 0.03
0.00 0.00 0.00 0.00 0.00 0.00 0.00 0.00 0.00 0.00 0.00 0.00 0.00 0.00 0.00 0.00 0.00 0.00 0.00 0.00 0.00 0.00 0.00 0.00 0.00 0.00 0.00 0.00 0.00 0.00 0.00 0.00 0.00 0.00 0.01 0.03 0.05 0.06 0.05 0.02 0.01 0.00 0.01 0.03
0.00 0.00 0.00 0.00 0.00 0.00 0.00 0.00 0.00 0.00 0.00 0.00 0.00 0.00 0.00 0.00 0.00 0.00 0.00 0.00 0.00 0.00 0.00 0.00 0.00 0.00 0.00 0.00 0.00 0.00 0.00 0.00 0.00 0.00 0.00 0.00 0.01 0.03 0.04 0.03 0.02 0.02 0.02 0.03
0.00 0.00 0.00 0.00 0.00 0.00 0.00 0.00 0.00 0.00 0.00 0.00 0.00 0.00 0.00 0.00 0.00 0.00 0.00 0.00 0.00 0.00 0.00 0.00 0.00 0.00 0.00 0.00 0.00 0.00 0.00 0.00 0.00 0.00 0.00 0.00 0.00 0.01 0.03 0.03 0.04 0.02 0.02 0.01
0.00 0.00 0.00 0.00 0.00 0.00 0.00 0.00 0.00 0.00 0.00 0.00 0.00 0.00 0.00 0.00 0.00 0.00 0.00 0.00 0.00 0.00 0.00 0.00 0.00 0.00 0.00 0.00 0.00 0.00 0.00 0.00 0.00 0.00 0.00 0.00 0.00 0.01 0.04 0.06 0.06 0.06 0.05 0.03
0.00 0.00 0.00 0.00 0.00 0.00 0.00 0.00 0.00 0.00 0.00 0.01 0.00 0.00 0.00 0.00 0.00 0.00 0.00 0.00 0.00 0.00 0.00 0.00 0.00 0.00 0.00 0.00 0.00 0.00 0.00 0.00 0.00 0.00 0.00 0.00 0.00 0.01 0.02 0.03 0.02 0.03 0.03 0.03
0.00 0.00 0.00 0.00 0.00 0.00 0.00 0.00 0.00 0.00 0.00 0.00 0.00 0.00 0.00 0.00 0.00 0.00 0.00 0.00 0.00 0.00 0.00 0.00 0.00 0.00 0.00 0.00 0.00 0.00 0.00 0.00 0.00 0.00 0.00 0.00 0.00 0.00 0.00 0.01 0.01 0.02 0.02 0.00
0.00 0.00 0.00 0.00 0.00 0.00 0.00 0.00 0.00 0.00 0.00 0.00 0.00 0.00 0.00 0.00 0.00 0.00 0.00 0.00 0.00 0.00 0.00 0.00 0.00 0.00 0.00 0.00 0.00 0.00 0.00 0.00 0.00 0.00 0.00 0.00 0.00 0.00 0.00 0.00 0.00 0.00 0.00 0.00
0.00 0.00 0.00 0.00 0.00 0.00 0.00 0.00 0.00 0.00 0.00 0.00 0.00 0.00 0.00 0.00 0.00 0.00 0.00 0.00 0.00 0.00 0.00 0.00 0.00 0.00 0.00 0.00 0.00 0.00 0.00 0.00 0.00 0.01 0.00 0.00 0.00 0.00 0.00 0.00 0.00 0.00 0.00 0.00
0.00 0.00 0.00 0.00 0.00 0.00 0.00 0.00 0.00 0.00 0.00 0.00 0.00 0.00 0.00 0.00 0.00 0.00 0.00 0.00 0.00 0.00 0.00 0.00 0.00 0.00 0.00 0.00 0.00 0.00 0.00 0.00 0.01 0.01 0.00 0.00 0.00 0.00 0.00 0.00 0.00 0.00 0.00 0.00
0.00 0.01 0.01 0.00 0.00 0.00 0.00 0.00 0.00 0.00 0.00 0.00 0.00 0.00 0.00 0.00 0.00 0.00 0.00 0.00 0.00 0.00 0.00 0.00 0.00 0.00 0.00 0.00 0.00 0.00 0.00 0.00 0.01 0.02 0.00 0.00 0.00 0.00 0.00 0.00 0.00 0.00 0.00 0.00
0.01 0.01 0.01 0.01 0.00 0.00 0.00 0.00 0.00 0.00 0.00 0.00 0.00 0.00 0.00 0.00 0.00 0.00 0.00 0.00 0.00 0.00 0.00 0.00 0.00 0.00 0.00 0.00 0.00 0.00 0.00 0.00 0.00 0.01 0.01 0.00 0.00 0.00 0.00 0.00 0.00 0.00 0.00 0.00
0.00 0.00 0.00 0.00 0.00 0.00 0.00 0.00 0.00 0.00 0.00 0.00 0.00 0.00 0.00 0.00 0.00 0.00 0.00 0.00 0.00 0.00 0.00 0.00 0.00 0.00 0.00 0.00 0.00 0.00 0.00 0.00 0.00 0.01 0.01 0.00 0.00 0.00 0.00 0.00 0.00 0.00 0.00 0.00
0.00 0.00 0.00 0.00 0.00 0.00 0.00 0.00 0.00 0.00 0.00 0.00 0.00 0.00 0.00 0.00 0.00 0.00 0.00 0.00 0.00 0.00 0.00 0.00 0.00 0.00 0.00 0.00 0.00 0.00 0.00 0.00 0.00 0.00 0.00 0.00 0.00 0.00 0.00 0.00 0.00 0.00 0.00 0.00
0.00 0.00 0.00 0.00 0.00 0.00 0.00 0.00 0.00 0.00 0.00 0.00 0.00 0.00 0.00 0.00 0.00 0.00 0.00 0.00 0.00 0.01 0.00 0.00 0.00 0.00 0.00 0.00 0.00 0.00 0.00 0.00 0.00 0.00 0.00 0.00 0.00 0.00 0.00 0.00 0.00 0.00 0.00 0.00
0.00 0.00 0.00 0.00 0.00 0.00 0.00 0.00 0.00 0.00 0.00 0.00 0.00 0.00 0.00 0.00 0.00 0.00 0.00 0.00 0.00 0.01 0.00 0.00 0.00 0.00 0.00 0.00 0.00 0.00 0.00 0.00 0.00 0.00 0.00 0.00 0.00 0.00 0.00 0.00 0.00 0.00 0.00 0.00
0.00 0.00 0.00 0.00 0.00 0.00 0.00 0.00 0.00 0.00 0.00 0.00 0.00 0.00 0.00 0.00 0.00 0.00 0.00 0.00 0.01 0.00 0.00 0.00 0.00 0.00 0.00 0.00 0.00 0.00 0.00 0.00 0.00 0.00 0.00 0.00 0.00 0.00 0.00 0.00 0.00 0.00 0.00 0.00
MSLP
1008.01 1007.23 1006.16 1005.57 1005.80 1005.18 1004.25 1003.43 1002.61 1002.04 1001.76 1001.66 1000.99 1001.03 1000.63 1000.31 1000.00 999.94 1000.02 1000.33 1000.86 1001.04 1001.30 1002.07 1002.59 1002.60 1002.24 1002.30 1002.40 1002.44 1002.58 1003.19 1005.27 1006.60 1007.29 1008.06 1008.20 1008.69 1009.02 1009.20 1009.22 1009.53 1010.14 1010.58
1006.40 1005.53 1005.19 1004.92 1004.89 1004.46 1004.16 1003.61 1002.76 1002.30 1002.10 1002.03 1000.99 999.11 999.90 999.49 998.97 999.77 1000.36 1000.37 1000.81 1001.79 1002.95 1003.76 1003.84 1003.84 1003.87 1003.52 1003.08 1002.79 1002.49 1002.51 1003.58 1005.08 1006.03 1007.02 1007.90 1008.04 1008.01 1008.47 1008.97 1009.14 1009.60 1010.05
1004.60 1004.16 1004.79 1004.44 1004.47 1004.65 1004.29 1003.72 1003.11 1002.62 1002.60 1002.39 1001.10 997.37 998.44 998.65 998.95 999.87 1000.28 1002.04 1003.18 1003.99 1004.41 1004.53 1004.48 1004.37 1004.20 1004.08 1004.05 1003.64 1002.99 1002.37 1002.08 1003.74 1005.16 1006.19 1006.88 1007.86 1008.04 1007.67 1007.65 1008.18 1008.55 1009.22
1004.68 1004.33 1004.36 1004.66 1004.37 1004.27 1003.72 1003.71 1003.52 1003.67 1003.45 1001.97 1000.89 997.17 998.87 998.05 998.79 1000.28 1002.10 1003.28 1004.21 1004.80 1005.18 1005.24 1004.93 1004.91 1004.59 1004.13 1004.02 1004.22 1004.05 1003.25 1002.28 1002.93 1004.15 1004.81 1005.22 1005.70 1006.57 1007.21 1007.35 1006.81 1007.46 1008.18
1003.60 1003.96 1004.25 1003.81 1003.54 1004.09 1003.71 1004.19 1004.37 1004.50 1003.71 1002.76 1001.58 1000.27 994.45 997.75 998.23 1000.42 1002.64 1003.76 1004.47 1004.92 1005.09 1005.29 1005.33 1005.03 1004.89 1004.59 1004.45 1004.62 1004.55 1004.03 1003.25 1002.49 1003.43 1003.94 1004.25 1004.54 1004.83 1005.61 1006.83 1007.15 1006.82 1007.06
1004.25 1003.63 1004.08 1003.80 1003.78 1004.24 1004.40 1004.71 1005.30 1005.09 1004.46 1002.34 1001.09 1000.41 994.58 997.75 999.10 1000.96 1002.66 1003.84 1004.62 1004.92 1005.04 1005.09 1004.99 1004.98 1004.92 1004.92 1004.76 1004.52 1004.39 1004.02 1003.75 1002.99 1002.95 1003.55 1003.51 1003.83 1004.20 1004.48 1005.08 1006.34 1006.98 1006.82
1004.18 1004.11 1004.55 1004.77 1004.43 1004.67 1004.90 1004.98 1004.71 1004.31 1003.60 1001.10 1000.36 999.25 996.33 997.88 1000.27 1002.04 1003.26 1004.10 1004.59 1004.85 1005.08 1005.04 1004.56 1004.41 1004.67 1004.87 1004.87 1004.60 1004.11 1003.89 1003.78 1003.61 1003.64 1003.32 1002.61 1002.91 1003.00 1003.44 1004.12 1004.88 1005.92 1006.31
1002.71 1003.21 1003.69 1004.32 1004.28 1003.84 1004.58 1004.75 1004.03 1003.04 1002.46 1001.20 999.94 998.63 997.33 998.66 1000.54 1002.30 1003.43 1004.20 1004.52 1004.63 1004.74 1004.68 1004.49 1004.35 1004.07 1004.10 1004.23 1004.35 1004.37 1003.98 1003.87 1003.69 1003.35 1003.51 1002.70 1001.44 1001.78 1002.43 1003.03 1003.72 1004.12 1004.96
1001.67 1002.83 1003.66 1004.61 1004.42 1004.44 1004.27 1004.77 1005.05 1005.06 1005.14 1004.44 1002.01 1000.75 999.66 999.94 1001.02 1002.55 1003.52 1004.05 1004.27 1004.47 1004.38 1004.26 1004.34 1004.04 1003.85 1003.81 1003.57 1003.55 1003.63 1003.98 1003.57 1003.02 1002.96 1002.63 1002.32 1000.99 1000.13 1000.77 1001.64 1002.42 1003.08 1003.90
1002.17 1003.61 1004.76 1005.39 1005.60 1005.72 1005.22 1005.71 1006.73 1007.20 1007.32 1006.14 1003.52 1002.06 1000.91 1001.51 1003.03 1003.79 1004.08 1004.33 1004.17 1004.22 1004.11 1004.04 1004.08 1004.02 1004.00 1003.84 1003.55 1003.21 1003.23 1003.45 1003.49 1002.98 1002.14 1002.05 1001.37 1000.07 999.40 999.68 1000.51 1001.56 1002.46 1003.25
1003.77 1003.69 1005.39 1006.06 1005.66 1005.10 1006.51 1006.60 1007.60 1008.38 1008.89 1008.31 1006.59 1003.72 1003.52 1004.26 1004.73 1004.86 1004.73 1004.44 1004.41 1004.26 1004.01 1003.86 1003.71 1003.75 1003.52 1003.48 1003.89 1003.37 1003.44 1002.97 1002.70 1002.58 1002.23 1001.68 1000.79 999.40 998.83 998.77 999.85 1000.56 1001.67 1002.61
1004.90 1005.01 1005.84 1006.19 1006.13 1006.48 1006.82 1007.29 1008.56 1009.74 1010.31 1010.08 1009.29 1004.97 1005.55 1005.68 1005.60 1005.74 1005.57 1005.32 1005.02 1004.49 1004.45 1004.33 1004.04 1004.11 1003.52 1003.26 1003.10 1003.09 1003.20 1003.03 1002.22 1001.46 1001.75 1001.05 1000.71 999.73 998.78 998.69 999.30 1000.32 1001.47 1002.61
1005.91 1006.47 1006.97 1008.10 1008.41 1007.93 1007.88 1008.56 1009.46 1010.81 1011.54 1010.73 1010.05 1006.09 1005.69 1006.17 1006.08 1005.83 1005.31 1004.97 1004.92 1004.71 1005.04 1004.92 1004.56 1004.18 1003.51 1003.01 1002.82 1002.74 1002.72 1002.50 1001.45 1001.09 1001.33 1000.65 1000.42 1000.11 999.47 999.26 999.65 1000.50 1001.36 1002.46
1006.69 1007.33 1007.17 1007.55 1007.59 1007.80 1008.49 1009.08 1009.79 1010.92 1011.01 1010.58 1009.03 1008.15 1006.87 1006.14 1005.76 1005.43 1005.14 1005.08 1005.18 1005.14 1005.21 1005.15 1004.74 1004.08 1004.30 1003.68 1003.08 1002.60 1002.03 1001.80 1001.05 1000.84 1000.96 1000.90 1000.55 1000.35 999.99 1000.19 1000.40 1000.86 1001.71 1002.64
1007.82 1008.24 1008.41 1008.52 1008.64 1008.45 1008.33 1008.73 1009.00 1009.22 1009.95 1009.55 1008.45 1007.85 1006.82 1005.98 1005.63 1005.29 1005.15 1005.34 1005.32 1005.00 1004.88 1004.90 1004.79 1004.40 1004.22 1004.20 1003.42 1002.39 1001.32 1001.14 1000.82 1000.82 1000.98 1000.80 1000.45 1000.82 1000.48 1000.50 1000.80 1001.14 1001.82 1002.61
1008.64 1009.08 1009.28 1009.56 1009.19 1008.81 1008.31 1008.30 1008.35 1008.22 1008.00 1007.44 1006.93 1006.14 1006.56 1005.57 1005.32 1005.62 1005.96 1006.09 1005.77 1005.23 1004.91 1005.00 1005.36 1004.96 1004.48 1004.55 1003.45 1002.66 1001.38 1000.89 1001.12 1001.23 1001.09 1000.99 1000.68 1001.10 1001.00 1001.34 1001.59 1002.04 1002.61 1003.28
1009.18 1009.52 1010.14 1009.47 1008.68 1008.36 1007.55 1006.99 1007.06 1007.21 1007.27 1007.09 1005.99 1005.48 1005.63 1005.77 1005.79 1006.23 1006.54 1006.26 1005.71 1005.62 1005.53 1005.46 1005.60 1005.62 1005.32 1004.76 1004.04 1002.99 1001.56 1000.82 1001.28 1001.22 1001.07 1000.98 1000.74 1001.38 1001.56 1001.81 1002.18 1002.62 1002.97 1003.92
1009.01 1009.58 1009.83 1009.51 1009.04 1008.06 1006.11 1005.97 1006.28 1006.37 1006.45 1006.37 1006.05 1005.86 1005.80 1006.00 1006.31 1006.28 1006.48 1006.21 1005.92 1005.94 1005.99 1005.93 1006.26 1005.92 1005.07 1004.37 1003.65 1002.45 1001.32 1000.98 1001.34 1001.52 1001.32 1001.18 1001.04 1001.73 1002.23 1002.54 1003.00 1003.01 1003.21 1004.23
1008.65 1009.16 1009.53 1009.32 1008.28 1006.83 1005.86 1005.77 1006.32 1006.55 1006.55 1006.65 1006.29 1006.23 1006.00 1006.44 1006.25 1005.86 1005.94 1006.18 1006.30 1006.20 1006.23 1006.09 1005.82 1005.31 1004.68 1003.86 1002.69 1001.90 1001.14 1001.07 1001.19 1001.38 1001.25 1001.35 1001.65 1001.87 1002.36 1002.58 1002.93 1003.72 1004.11 1004.88
1009.05 1009.02 1009.41 1009.03 1008.15 1006.67 1005.42 1005.81 1006.60 1007.32 1006.55 1005.85 1005.95 1006.47 1006.45 1006.41 1005.86 1005.72 1006.36 1006.79 1006.64 1006.12 1006.16 1005.52 1005.28 1004.80 1004.60 1004.08 1003.18 1002.43 1001.90 1001.70 1001.55 1001.17 1001.28 1001.34 1001.73 1002.21 1002.96 1003.10 1003.51 1004.06 1004.66 1005.45
1008.44 1008.99 1008.75 1008.53 1007.50 1006.07 1005.62 1005.99 1006.90 1007.51 1006.68 1006.13 1006.37 1006.31 1006.22 1006.42 1006.32 1006.35 1006.74 1006.57 1006.14 1005.61 1005.13 1004.94 1004.48 1004.62 1004.73 1004.21 1003.84 1003.23 1002.61 1001.96 1001.67 1001.04 1001.07 1001.32 1001.56 1002.17 1002.86 1003.40 1003.79 1004.14 1005.23 1005.87
1006.55 1007.55 1007.75 1007.99 1007.15 1006.07 1005.41 1006.03 1006.40 1006.22 1006.19 1005.97 1005.78 1005.76 1006.05 1006.31 1006.38 1006.56 1006.23 1005.85 1005.37 1004.93 1004.53 1004.03 1004.32 1004.57 1004.59 1004.26 1003.88 1003.36 1002.92 1002.09 1001.61 1001.11 1001.10 1001.31 1001.66 1002.12 1002.80 1003.39 1004.16 1004.80 1005.54 1006.31
1005.83 1005.89 1006.13 1006.45 1005.70 1005.72 1005.77 1005.77 1005.90 1006.16 1006.10 1005.64 1005.62 1005.59 1005.63 1005.78 1005.93 1005.94 1005.48 1005.26 1004.90 1004.36 1004.04 1003.60 1004.59 1004.73 1004.57 1004.29 1004.04 1003.61 1003.18 1002.59 1001.82 1001.57 1001.63 1001.79 1001.87 1002.24 1003.07 1003.43 1004.23 1005.19 1005.88 1006.24
1005.03 1005.11 1005.46 1006.00 1005.36 1005.51 1005.33 1005.30 1005.32 1005.30 1005.04 1004.96 1005.09 1005.03 1005.30 1005.26 1005.37 1005.32 1005.04 1004.85 1004.56 1003.92 1003.82 1004.00 1004.53 1004.70 1004.40 1004.32 1004.27 1003.95 1003.40 1002.72 1002.40 1002.28 1002.50 1002.41 1002.65 1002.85 1003.47 1003.99 1004.41 1004.91 1005.51 1006.22
1004.17 1004.97 1005.65 1005.12 1005.18 1005.23 1004.94 1004.85 1004.60 1004.65 1004.75 1004.88 1004.87 1004.91 1004.96 1004.97 1004.90 1004.94 1004.70 1004.59 1004.40 1004.49 1003.92 1004.29 1004.70 1004.93 1004.77 1004.60 1004.26 1003.76 1003.36 1003.27 1003.01 1002.96 1003.14 1002.78 1002.94 1003.20 1004.14 1004.47 1005.08 1005.46 1005.94 1006.11
1004.25 1004.53 1004.76 1004.39 1004.68 1004.63 1004.33 1004.45 1004.59 1004.79 1004.85 1004.74 1004.69 1004.59 1004.57 1004.68 1004.59 1004.65 1004.55 1004.62 1005.25 1004.56 1004.38 1004.38 1004.79 1005.26 1005.28 1005.01 1004.66 1003.98 1003.43 1003.23 1003.52 1003.43 1003.38 1003.29 1003.76 1003.90 1004.50 1004.78 1005.64 1006.33 1006.67 1007.01
Thickness
5668 5664 5665 5680 5680 5689 5695 5697 5697 5713 5726 5717 5719 5718 5729 5739 5742 5738 5739 5741 5738 5738 5743 5742 5738 5739 5743 5743 5741 5739 5735 5729 5712 5698 5691 5684 5684 5679 5675 5673 5671 5668 5660 5656
5666 5663 5683 5689 5687 5688 5687 5685 5691 5706 5715 5707 5713 5728 5730 5736 5740 5735 5729 5732 5730 5723 5718 5713 5715 5717 5717 5719 5723 5725 5727 5725 5717 5702 5693 5684 5673 5672 5673 5669 5664 5661 5655 5651
5667 5680 5679 5680 5676 5668 5673 5675 5683 5687 5698 5701 5705 5733 5732 5731 5736 5730 5727 5712 5703 5696 5693 5695 5698 5699 5702 5701 5702 5705 5710 5714 5714 5705 5686 5677 5670 5661 5660 5662 5662 5659 5654 5646
5658 5674 5668 5662 5662 5672 5663 5685 5681 5674 5671 5672 5707 5702 5712 5732 5721 5706 5689 5684 5683 5681 5679 5679 5682 5683 5686 5690 5692 5687 5686 5690 5697 5693 5680 5671 5668 5663 5655 5651 5649 5654 5650 5645
5659 5657 5656 5656 5670 5670 5664 5674 5665 5662 5663 5668 5677 5674 5738 5724 5721 5689 5675 5669 5667 5665 5664 5663 5665 5669 5671 5674 5674 5671 5667 5668 5671 5673 5670 5661 5657 5657 5655 5647 5638 5636 5640 5640
5648 5668 5656 5663 5663 5660 5663 5652 5646 5648 5648 5642 5670 5670 5731 5705 5693 5676 5668 5661 5656 5654 5654 5652 5652 5651 5650 5651 5652 5654 5651 5650 5651 5652 5656 5647 5645 5642 5639 5638 5636 5624 5622 5625
5637 5638 5641 5644 5639 5644 5642 5635 5621 5623 5625 5646 5681 5673 5709 5704 5666 5656 5648 5643 5643 5641 5637 5635 5636 5635 5631 5627 5626 5629 5632 5631 5626 5624 5621 5629 5633 5627 5627 5627 5622 5617 5610 5611
5627 5616 5634 5637 5635 5635 5629 5630 5625 5621 5635 5652 5681 5659 5690 5687 5655 5646 5636 5632 5630 5626 5623 5621 5620 5617 5618 5614 5605 5600 5598 5601 5598 5597 5596 5592 5604 5614 5610 5608 5606 5606 5606 5603
5631 5618 5629 5624 5632 5632 5622 5609 5624 5606 5612 5600 5635 5648 5670 5665 5642 5628 5622 5617 5611 5609 5609 5609 5604 5603 5601 5593 5587 5575 5572 5566 5566 5567 5564 5564 5572 5585 5596 5593 5590 5591 5592 5591
5629 5586 5604 5603 5608 5607 5608 5608 5580 5579 5555 5562 5611 5626 5629 5618 5594 5600 5598 5591 5594 5593 5594 5591 5586 5580 5574 5566 5561 5554 5543 5537 5531 5532 5537 5540 5548 5566 5575 5576 5575 5574 5574 5573
5605 5600 5581 5585 5587 5595 5578 5577 5571 5565 5559 5545 5558 5596 5607 5583 5579 5572 5576 5580 5575 5575 5574 5572 5570 5563 5558 5544 5531 5525 5520 5520 5520 5517 5515 5518 5527 5549 5556 5562 5559 5557 5559 5558
5583 5579 5562 5567 5576 5576 5572 5562 5549 5533 5535 5531 5526 5572 5577 5563 5561 5555 5553 5548 5547 5549 5542 5539 5535 5528 5528 5527 5521 5511 5508 5508 5514 5519 5506 5505 5510 5524 5538 5544 5545 5543 5539 5539
5562 5548 5540 5522 5535 5549 5543 5540 5534 5512 5493 5511 5509 5551 5569 5545 5540 5540 5534 5535 5526 5519 5512 5508 5506 5509 5509 5511 5506 5502 5501 5501 5509 5510 5502 5496 5494 5503 5515 5522 5525 5525 5526 5525
5544 5537 5537 5529 5534 5539 5525 5523 5517 5497 5495 5506 5511 5511 5537 5534 5529 5524 5520 5512 5506 5501 5495 5491 5493 5491 5489 5488 5488 5481 5496 5499 5503 5500 5495 5483 5481 5483 5495 5500 5503 5507 5508 5509
5523 5520 5521 5517 5515 5522 5523 5518 5514 5507 5496 5493 5508 5498 5510 5517 5512 5509 5504 5497 5494 5492 5489 5485 5477 5474 5469 5465 5471 5479 5491 5495 5494 5491 5482 5474 5474 5469 5479 5485 5489 5492 5494 5497
5505 5494 5500 5484 5500 5504 5508 5509 5508 5509 5510 5506 5507 5506 5503 5506 5503 5492 5485 5477 5477 5476 5475 5470 5458 5454 5451 5445 5456 5463 5478 5486 5484 5476 5471 5468 5466 5461 5467 5469 5472 5477 5475 5479
5484 5477 5466 5484 5498 5498 5497 5512 5504 5503 5500 5494 5492 5499 5495 5486 5485 5474 5466 5467 5467 5461 5456 5451 5445 5436 5432 5433 5436 5443 5463 5476 5472 5470 5468 5465 5465 5457 5457 5461 5462 5463 5461 5467
5476 5471 5476 5474 5479 5459 5510 5512 5503 5493 5491 5486 5484 5482 5480 5473 5471 5466 5460 5456 5455 5447 5441 5439 5428 5423 5427 5428 5431 5439 5456 5464 5462 5461 5463 5462 5460 5449 5444 5446 5446 5443 5448 5447
5478 5472 5464 5461 5473 5495 5500 5495 5483 5476 5477 5473 5469 5467 5466 5460 5462 5465 5455 5449 5441 5437 5432 5428 5425 5422 5422 5425 5434 5439 5452 5455 5457 5457 5455 5457 5453 5449 5442 5442 5437 5437 5440 5439
5456 5462 5458 5457 5455 5465 5489 5478 5475 5462 5451 5467 5462 5452 5451 5451 5447 5455 5444 5434 5430 5432 5427 5429 5424 5423 5416 5416 5421 5429 5437 5440 5447 5452 5448 5452 5451 5445 5438 5437 5434 5433 5430 5429
5436 5434 5438 5445 5452 5473 5476 5467 5453 5429 5453 5453 5452 5447 5445 5441 5436 5437 5429 5426 5427 5430 5429 5428 5427 5418 5408 5410 5410 5414 5420 5430 5436 5446 5449 5448 5448 5444 5440 5438 5436 5437 5425 5425
5452 5435 5433 5435 5434 5437 5465 5453 5437 5448 5452 5448 5448 5443 5435 5431 5425 5418 5419 5421 5425 5429 5430 5427 5418 5407 5403 5403 5406 5410 5415 5423 5430 5438 5441 5443 5443 5441 5439 5437 5434 5432 5426 5425
5445 5450 5444 5443 5451 5449 5444 5442 5442 5439 5440 5441 5436 5435 5427 5424 5420 5416 5417 5419 5423 5428 5429 5431 5411 5400 5398 5399 5400 5403 5407 5413 5424 5429 5433 5433 5431 5436 5434 5433 5430 5424 5422 5425
5449 5445 5437 5434 5447 5436 5436 5440 5438 5437 5438 5437 5432 5428 5423 5420 5417 5414 5415 5418 5421 5428 5426 5422 5410 5399 5398 5395 5393 5394 5398 5407 5414 5418 5419 5422 5423 5424 5423 5425 5425 5425 5424 5421
5443 5429 5420 5433 5436 5429 5433 5432 5431 5431 5428 5426 5424 5421 5417 5415 5415 5412 5413 5415 5419 5416 5422 5414 5404 5394 5393 5392 5390 5391 5394 5397 5402 5405 5405 5413 5417 5417 5412 5414 5412 5413 5412 5414
5429 5422 5419 5427 5429 5427 5431 5425 5418 5416 5416 5416 5416 5415 5413 5410 5409 5410 5412 5412 5404 5412 5413 5410 5399 5390 5386 5386 5387 5390 5394 5395 5394 5398 5400 5403 5403 5406 5403 5404 5399 5395 5397 5399